Location: Northeast Philadelphia Airport
(40.0833°N, 75.0000°W)
Time: 20:42:23
(UTC-05:00)

ISS - Visible Passes

Search period start: 11 December 2018 00:00
Search period end: 21 December 2018 00:00
Orbit: 401 x 408 km, 51.6° (Epoch: 12 December)

Date Brightness Start Highest point End Pass type
(mag) Time Alt. Az. Time Alt. Az. Time Alt. Az.
11 Dec -2.9 18:27:02 10° WNW 18:30:10 45° SW 18:30:39 41° SSW visible
12 Dec -3.9 17:34:44 10° NW 17:38:01 87° NE 17:41:16 10° SE visible
13 Dec -1.0 18:19:41 10° W 18:22:00 18° SW 18:24:20 10° S visible
14 Dec -2.1 17:26:56 10° WNW 17:29:57 35° SW 17:32:56 10° SSE visible
16 Dec -0.5 17:19:47 10° W 17:21:40 15° SW 17:23:32 10° SSW visible
